Index of /20260506/WXO-DD/model_caps/3km/00/005
Name Last modified Size Description
Parent Directory -
20260506T00Z_MSC_CAPS_AbsoluteVorticity_IsbL-0250_RLatLon0.03_PT005H.grib2 2026-05-06 06:05 1.1M
20260506T00Z_MSC_CAPS_AbsoluteVorticity_IsbL-0500_RLatLon0.03_PT005H.grib2 2026-05-06 06:05 1.1M
20260506T00Z_MSC_CAPS_AbsoluteVorticity_IsbL-0700_RLatLon0.03_PT005H.grib2 2026-05-06 06:05 1.3M
20260506T00Z_MSC_CAPS_AbsoluteVorticity_IsbL-0850_RLatLon0.03_PT005H.grib2 2026-05-06 06:05 1.3M
20260506T00Z_MSC_CAPS_AbsoluteVorticity_IsbL-1000_RLatLon0.03_PT005H.grib2 2026-05-06 06:05 1.4M
20260506T00Z_MSC_CAPS_AirDensity_AGL-120m_RLatLon0.03_PT005H.grib2 2026-05-06 06:05 1.4M
20260506T00Z_MSC_CAPS_AirDensity_AGL-40m_RLatLon0.03_PT005H.grib2 2026-05-06 06:05 1.4M
20260506T00Z_MSC_CAPS_AirDensity_AGL-80m_RLatLon0.03_PT005H.grib2 2026-05-06 06:05 1.4M
20260506T00Z_MSC_CAPS_AirTemp_AGL-120m_RLatLon0.03_PT005H.grib2 2026-05-06 06:05 1.7M
20260506T00Z_MSC_CAPS_AirTemp_AGL-2m_RLatLon0.03_PT005H.grib2 2026-05-06 06:05 1.7M
20260506T00Z_MSC_CAPS_AirTemp_AGL-40m_RLatLon0.03_PT005H.grib2 2026-05-06 06:05 1.5M
20260506T00Z_MSC_CAPS_AirTemp_AGL-80m_RLatLon0.03_PT005H.grib2 2026-05-06 06:05 1.4M
20260506T00Z_MSC_CAPS_AirTemp_IsbL-0050_RLatLon0.03_PT005H.grib2 2026-05-06 06:05 696K
20260506T00Z_MSC_CAPS_AirTemp_IsbL-0100_RLatLon0.03_PT005H.grib2 2026-05-06 06:05 951K
20260506T00Z_MSC_CAPS_AirTemp_IsbL-0150_RLatLon0.03_PT005H.grib2 2026-05-06 06:05 752K
20260506T00Z_MSC_CAPS_AirTemp_IsbL-0175_RLatLon0.03_PT005H.grib2 2026-05-06 06:05 778K
20260506T00Z_MSC_CAPS_AirTemp_IsbL-0200_RLatLon0.03_PT005H.grib2 2026-05-06 06:05 802K
20260506T00Z_MSC_CAPS_AirTemp_IsbL-0225_RLatLon0.03_PT005H.grib2 2026-05-06 06:05 801K
20260506T00Z_MSC_CAPS_AirTemp_IsbL-0250_RLatLon0.03_PT005H.grib2 2026-05-06 06:05 1.0M
20260506T00Z_MSC_CAPS_AirTemp_IsbL-0275_RLatLon0.03_PT005H.grib2 2026-05-06 06:05 1.0M
20260506T00Z_MSC_CAPS_AirTemp_IsbL-0300_RLatLon0.03_PT005H.grib2 2026-05-06 06:05 1.0M
20260506T00Z_MSC_CAPS_AirTemp_IsbL-0350_RLatLon0.03_PT005H.grib2 2026-05-06 06:05 765K
20260506T00Z_MSC_CAPS_AirTemp_IsbL-0400_RLatLon0.03_PT005H.grib2 2026-05-06 06:05 770K
20260506T00Z_MSC_CAPS_AirTemp_IsbL-0450_RLatLon0.03_PT005H.grib2 2026-05-06 06:05 781K
20260506T00Z_MSC_CAPS_AirTemp_IsbL-0500_RLatLon0.03_PT005H.grib2 2026-05-06 06:05 792K
20260506T00Z_MSC_CAPS_AirTemp_IsbL-0550_RLatLon0.03_PT005H.grib2 2026-05-06 06:05 804K
20260506T00Z_MSC_CAPS_AirTemp_IsbL-0600_RLatLon0.03_PT005H.grib2 2026-05-06 06:05 824K
20260506T00Z_MSC_CAPS_AirTemp_IsbL-0650_RLatLon0.03_PT005H.grib2 2026-05-06 06:05 852K
20260506T00Z_MSC_CAPS_AirTemp_IsbL-0700_RLatLon0.03_PT005H.grib2 2026-05-06 06:05 1.0M
20260506T00Z_MSC_CAPS_AirTemp_IsbL-0750_RLatLon0.03_PT005H.grib2 2026-05-06 06:05 968K
20260506T00Z_MSC_CAPS_AirTemp_IsbL-0800_RLatLon0.03_PT005H.grib2 2026-05-06 06:05 1.0M
20260506T00Z_MSC_CAPS_AirTemp_IsbL-0850_RLatLon0.03_PT005H.grib2 2026-05-06 06:05 1.0M
20260506T00Z_MSC_CAPS_AirTemp_IsbL-0875_RLatLon0.03_PT005H.grib2 2026-05-06 06:05 1.0M
20260506T00Z_MSC_CAPS_AirTemp_IsbL-0900_RLatLon0.03_PT005H.grib2 2026-05-06 06:05 1.0M
20260506T00Z_MSC_CAPS_AirTemp_IsbL-0925_RLatLon0.03_PT005H.grib2 2026-05-06 06:05 1.1M
20260506T00Z_MSC_CAPS_AirTemp_IsbL-0950_RLatLon0.03_PT005H.grib2 2026-05-06 06:05 1.0M
20260506T00Z_MSC_CAPS_AirTemp_IsbL-0970_RLatLon0.03_PT005H.grib2 2026-05-06 06:05 1.0M
20260506T00Z_MSC_CAPS_AirTemp_IsbL-0985_RLatLon0.03_PT005H.grib2 2026-05-06 06:05 1.0M
20260506T00Z_MSC_CAPS_AirTemp_IsbL-1000_RLatLon0.03_PT005H.grib2 2026-05-06 06:05 1.0M
20260506T00Z_MSC_CAPS_AirTemp_IsbL-1015_RLatLon0.03_PT005H.grib2 2026-05-06 06:05 1.1M
20260506T00Z_MSC_CAPS_Albedo_Sfc_RLatLon0.03_PT005H.grib2 2026-05-06 06:05 2.7M
20260506T00Z_MSC_CAPS_CAPE_Sfc_RLatLon0.03_PT005H.grib2 2026-05-06 06:05 211K
20260506T00Z_MSC_CAPS_CloudWater_EAtm_RLatLon0.03_PT005H.grib2 2026-05-06 06:05 1.4M
20260506T00Z_MSC_CAPS_ConvectivePrecip-Accum_Sfc_RLatLon0.03_PT005H.grib2 2026-05-06 06:05 1.9M
20260506T00Z_MSC_CAPS_DewPointDepression_AGL-120m_RLatLon0.03_PT005H.grib2 2026-05-06 06:05 2.0M
20260506T00Z_MSC_CAPS_DewPointDepression_AGL-2m_RLatLon0.03_PT005H.grib2 2026-05-06 06:05 2.2M
20260506T00Z_MSC_CAPS_DewPointDepression_AGL-40m_RLatLon0.03_PT005H.grib2 2026-05-06 06:05 2.1M
20260506T00Z_MSC_CAPS_DewPointDepression_AGL-80m_RLatLon0.03_PT005H.grib2 2026-05-06 06:05 2.1M
20260506T00Z_MSC_CAPS_DewPointDepression_IsbL-0050_RLatLon0.03_PT005H.grib2 2026-05-06 06:05 1.5K
20260506T00Z_MSC_CAPS_DewPointDepression_IsbL-0100_RLatLon0.03_PT005H.grib2 2026-05-06 06:05 49K
20260506T00Z_MSC_CAPS_DewPointDepression_IsbL-0150_RLatLon0.03_PT005H.grib2 2026-05-06 06:05 60K
20260506T00Z_MSC_CAPS_DewPointDepression_IsbL-0175_RLatLon0.03_PT005H.grib2 2026-05-06 06:05 210K
20260506T00Z_MSC_CAPS_DewPointDepression_IsbL-0200_RLatLon0.03_PT005H.grib2 2026-05-06 06:05 379K
20260506T00Z_MSC_CAPS_DewPointDepression_IsbL-0225_RLatLon0.03_PT005H.grib2 2026-05-06 06:05 579K
20260506T00Z_MSC_CAPS_DewPointDepression_IsbL-0250_RLatLon0.03_PT005H.grib2 2026-05-06 06:05 811K
20260506T00Z_MSC_CAPS_DewPointDepression_IsbL-0275_RLatLon0.03_PT005H.grib2 2026-05-06 06:05 951K
20260506T00Z_MSC_CAPS_DewPointDepression_IsbL-0300_RLatLon0.03_PT005H.grib2 2026-05-06 06:05 1.0M
20260506T00Z_MSC_CAPS_DewPointDepression_IsbL-0350_RLatLon0.03_PT005H.grib2 2026-05-06 06:05 1.0M
20260506T00Z_MSC_CAPS_DewPointDepression_IsbL-0400_RLatLon0.03_PT005H.grib2 2026-05-06 06:05 1.1M
20260506T00Z_MSC_CAPS_DewPointDepression_IsbL-0450_RLatLon0.03_PT005H.grib2 2026-05-06 06:05 1.1M
20260506T00Z_MSC_CAPS_DewPointDepression_IsbL-0500_RLatLon0.03_PT005H.grib2 2026-05-06 06:05 1.1M
20260506T00Z_MSC_CAPS_DewPointDepression_IsbL-0550_RLatLon0.03_PT005H.grib2 2026-05-06 06:05 1.2M
20260506T00Z_MSC_CAPS_DewPointDepression_IsbL-0600_RLatLon0.03_PT005H.grib2 2026-05-06 06:05 1.2M
20260506T00Z_MSC_CAPS_DewPointDepression_IsbL-0650_RLatLon0.03_PT005H.grib2 2026-05-06 06:05 1.2M
20260506T00Z_MSC_CAPS_DewPointDepression_IsbL-0700_RLatLon0.03_PT005H.grib2 2026-05-06 06:05 1.2M
20260506T00Z_MSC_CAPS_DewPointDepression_IsbL-0750_RLatLon0.03_PT005H.grib2 2026-05-06 06:05 1.2M
20260506T00Z_MSC_CAPS_DewPointDepression_IsbL-0800_RLatLon0.03_PT005H.grib2 2026-05-06 06:05 1.3M
20260506T00Z_MSC_CAPS_DewPointDepression_IsbL-0850_RLatLon0.03_PT005H.grib2 2026-05-06 06:05 1.3M
20260506T00Z_MSC_CAPS_DewPointDepression_IsbL-0875_RLatLon0.03_PT005H.grib2 2026-05-06 06:05 1.3M
20260506T00Z_MSC_CAPS_DewPointDepression_IsbL-0900_RLatLon0.03_PT005H.grib2 2026-05-06 06:05 1.3M
20260506T00Z_MSC_CAPS_DewPointDepression_IsbL-0925_RLatLon0.03_PT005H.grib2 2026-05-06 06:05 1.3M
20260506T00Z_MSC_CAPS_DewPointDepression_IsbL-0950_RLatLon0.03_PT005H.grib2 2026-05-06 06:05 1.3M
20260506T00Z_MSC_CAPS_DewPointDepression_IsbL-0970_RLatLon0.03_PT005H.grib2 2026-05-06 06:05 1.4M
20260506T00Z_MSC_CAPS_DewPointDepression_IsbL-0985_RLatLon0.03_PT005H.grib2 2026-05-06 06:05 1.4M
20260506T00Z_MSC_CAPS_DewPointDepression_IsbL-1000_RLatLon0.03_PT005H.grib2 2026-05-06 06:05 1.4M
20260506T00Z_MSC_CAPS_DewPointDepression_IsbL-1015_RLatLon0.03_PT005H.grib2 2026-05-06 06:05 1.3M
20260506T00Z_MSC_CAPS_DewPoint_AGL-120m_RLatLon0.03_PT005H.grib2 2026-05-06 06:05 3.6M
20260506T00Z_MSC_CAPS_DewPoint_AGL-2m_RLatLon0.03_PT005H.grib2 2026-05-06 06:05 1.7M
20260506T00Z_MSC_CAPS_DewPoint_AGL-40m_RLatLon0.03_PT005H.grib2 2026-05-06 06:05 3.7M
20260506T00Z_MSC_CAPS_DewPoint_AGL-80m_RLatLon0.03_PT005H.grib2 2026-05-06 06:05 3.6M
20260506T00Z_MSC_CAPS_DownwardLongwaveRadiationFlux-Accum_Sfc_RLatLon0.03_PT005H.grib2 2026-05-06 06:05 2.3M
20260506T00Z_MSC_CAPS_DownwardShortwaveRadiationFlux-Accum_NTAtm_RLatLon0.03_PT005H.grib2 2026-05-06 06:05 361K
20260506T00Z_MSC_CAPS_DownwardShortwaveRadiationFlux-Accum_Sfc_RLatLon0.03_PT005H.grib2 2026-05-06 06:05 1.9M
20260506T00Z_MSC_CAPS_FreezingRain-Accum_Sfc_RLatLon0.03_PT005H.grib2 2026-05-06 06:05 253K
20260506T00Z_MSC_CAPS_GeopotentialHeight_IsbL-0050_RLatLon0.03_PT005H.grib2 2026-05-06 06:05 825K
20260506T00Z_MSC_CAPS_GeopotentialHeight_IsbL-0100_RLatLon0.03_PT005H.grib2 2026-05-06 06:05 747K
20260506T00Z_MSC_CAPS_GeopotentialHeight_IsbL-0150_RLatLon0.03_PT005H.grib2 2026-05-06 06:05 603K
20260506T00Z_MSC_CAPS_GeopotentialHeight_IsbL-0175_RLatLon0.03_PT005H.grib2 2026-05-06 06:05 716K
20260506T00Z_MSC_CAPS_GeopotentialHeight_IsbL-0200_RLatLon0.03_PT005H.grib2 2026-05-06 06:05 738K
20260506T00Z_MSC_CAPS_GeopotentialHeight_IsbL-0225_RLatLon0.03_PT005H.grib2 2026-05-06 06:05 758K
20260506T00Z_MSC_CAPS_GeopotentialHeight_IsbL-0250_RLatLon0.03_PT005H.grib2 2026-05-06 06:05 770K
20260506T00Z_MSC_CAPS_GeopotentialHeight_IsbL-0275_RLatLon0.03_PT005H.grib2 2026-05-06 06:05 781K
20260506T00Z_MSC_CAPS_GeopotentialHeight_IsbL-0300_RLatLon0.03_PT005H.grib2 2026-05-06 06:05 787K
20260506T00Z_MSC_CAPS_GeopotentialHeight_IsbL-0350_RLatLon0.03_PT005H.grib2 2026-05-06 06:05 786K
20260506T00Z_MSC_CAPS_GeopotentialHeight_IsbL-0400_RLatLon0.03_PT005H.grib2 2026-05-06 06:05 781K
20260506T00Z_MSC_CAPS_GeopotentialHeight_IsbL-0450_RLatLon0.03_PT005H.grib2 2026-05-06 06:05 772K
20260506T00Z_MSC_CAPS_GeopotentialHeight_IsbL-0500_RLatLon0.03_PT005H.grib2 2026-05-06 06:05 764K
20260506T00Z_MSC_CAPS_GeopotentialHeight_IsbL-0550_RLatLon0.03_PT005H.grib2 2026-05-06 06:05 645K
20260506T00Z_MSC_CAPS_GeopotentialHeight_IsbL-0600_RLatLon0.03_PT005H.grib2 2026-05-06 06:05 641K
20260506T00Z_MSC_CAPS_GeopotentialHeight_IsbL-0650_RLatLon0.03_PT005H.grib2 2026-05-06 06:05 812K
20260506T00Z_MSC_CAPS_GeopotentialHeight_IsbL-0700_RLatLon0.03_PT005H.grib2 2026-05-06 06:05 810K
20260506T00Z_MSC_CAPS_GeopotentialHeight_IsbL-0750_RLatLon0.03_PT005H.grib2 2026-05-06 06:05 816K
20260506T00Z_MSC_CAPS_GeopotentialHeight_IsbL-0800_RLatLon0.03_PT005H.grib2 2026-05-06 06:05 825K
20260506T00Z_MSC_CAPS_GeopotentialHeight_IsbL-0850_RLatLon0.03_PT005H.grib2 2026-05-06 06:05 836K
20260506T00Z_MSC_CAPS_GeopotentialHeight_IsbL-0875_RLatLon0.03_PT005H.grib2 2026-05-06 06:05 828K
20260506T00Z_MSC_CAPS_GeopotentialHeight_IsbL-0900_RLatLon0.03_PT005H.grib2 2026-05-06 06:05 849K
20260506T00Z_MSC_CAPS_GeopotentialHeight_IsbL-0925_RLatLon0.03_PT005H.grib2 2026-05-06 06:05 667K
20260506T00Z_MSC_CAPS_GeopotentialHeight_IsbL-0950_RLatLon0.03_PT005H.grib2 2026-05-06 06:05 674K
20260506T00Z_MSC_CAPS_GeopotentialHeight_IsbL-0970_RLatLon0.03_PT005H.grib2 2026-05-06 06:05 680K
20260506T00Z_MSC_CAPS_GeopotentialHeight_IsbL-0985_RLatLon0.03_PT005H.grib2 2026-05-06 06:05 687K
20260506T00Z_MSC_CAPS_GeopotentialHeight_IsbL-1000_RLatLon0.03_PT005H.grib2 2026-05-06 06:05 694K
20260506T00Z_MSC_CAPS_GeopotentialHeight_IsbL-1015_RLatLon0.03_PT005H.grib2 2026-05-06 06:05 702K
20260506T00Z_MSC_CAPS_GeopotentialHeight_Sfc_RLatLon0.03_PT005H.grib2 2026-05-06 06:05 1.0M
20260506T00Z_MSC_CAPS_IcePellets-Accum_Sfc_RLatLon0.03_PT005H.grib2 2026-05-06 06:05 35K
20260506T00Z_MSC_CAPS_LatentHeatNetFlux_Sfc_RLatLon0.03_PT005H.grib2 2026-05-06 06:05 1.9M
20260506T00Z_MSC_CAPS_LiftedIndex-MU-VT_IsbL-0500_RLatLon0.03_PT005H.grib2 2026-05-06 06:05 3.3M
20260506T00Z_MSC_CAPS_MixedLayerThickness_Sfc_RLatLon0.03_PT005H.nc 2026-05-06 06:11 16M
20260506T00Z_MSC_CAPS_NetLongwaveRadiationFlux-Accum_Sfc_RLatLon0.03_PT005H.grib2 2026-05-06 06:05 2.8M
20260506T00Z_MSC_CAPS_NetShortwaveRadiationFlux-Accum_Sfc_RLatLon0.03_PT005H.grib2 2026-05-06 06:05 2.0M
20260506T00Z_MSC_CAPS_PlanetaryBoundaryLayerHeight_Sfc_RLatLon0.03_PT005H.grib2 2026-05-06 06:05 2.9M
20260506T00Z_MSC_CAPS_Precip-Accum_Sfc_RLatLon0.03_PT005H.grib2 2026-05-06 06:05 3.0M
20260506T00Z_MSC_CAPS_PrecipRate_Sfc_RLatLon0.03_PT005H.grib2 2026-05-06 06:05 381K
20260506T00Z_MSC_CAPS_PrecipType-Instant_Sfc_RLatLon0.03_PT005H.grib2 2026-05-06 06:05 1.6M
20260506T00Z_MSC_CAPS_Pressure_MSL_RLatLon0.03_PT005H.grib2 2026-05-06 06:05 927K
20260506T00Z_MSC_CAPS_Pressure_Sfc_RLatLon0.03_PT005H.grib2 2026-05-06 06:05 1.2M
20260506T00Z_MSC_CAPS_RadiativeTemp_Sfc_RLatLon0.03_PT005H.grib2 2026-05-06 06:05 2.1M
20260506T00Z_MSC_CAPS_Rain-Accum_Sfc_RLatLon0.03_PT005H.grib2 2026-05-06 06:05 1.4M
20260506T00Z_MSC_CAPS_RelativeHumidity_AGL-120m_RLatLon0.03_PT005H.grib2 2026-05-06 06:05 2.8M
20260506T00Z_MSC_CAPS_RelativeHumidity_AGL-2m_RLatLon0.03_PT005H.grib2 2026-05-06 06:05 2.9M
20260506T00Z_MSC_CAPS_RelativeHumidity_AGL-40m_RLatLon0.03_PT005H.grib2 2026-05-06 06:05 2.9M
20260506T00Z_MSC_CAPS_RelativeHumidity_AGL-80m_RLatLon0.03_PT005H.grib2 2026-05-06 06:05 2.8M
20260506T00Z_MSC_CAPS_RelativeHumidity_IsbL-0050_RLatLon0.03_PT005H.grib2 2026-05-06 06:05 956K
20260506T00Z_MSC_CAPS_RelativeHumidity_IsbL-0100_RLatLon0.03_PT005H.grib2 2026-05-06 06:05 839K
20260506T00Z_MSC_CAPS_RelativeHumidity_IsbL-0150_RLatLon0.03_PT005H.grib2 2026-05-06 06:05 574K
20260506T00Z_MSC_CAPS_RelativeHumidity_IsbL-0175_RLatLon0.03_PT005H.grib2 2026-05-06 06:05 717K
20260506T00Z_MSC_CAPS_RelativeHumidity_IsbL-0200_RLatLon0.03_PT005H.grib2 2026-05-06 06:05 634K
20260506T00Z_MSC_CAPS_RelativeHumidity_IsbL-0225_RLatLon0.03_PT005H.grib2 2026-05-06 06:05 867K
20260506T00Z_MSC_CAPS_RelativeHumidity_IsbL-0250_RLatLon0.03_PT005H.grib2 2026-05-06 06:05 1.1M
20260506T00Z_MSC_CAPS_RelativeHumidity_IsbL-0275_RLatLon0.03_PT005H.grib2 2026-05-06 06:05 1.3M
20260506T00Z_MSC_CAPS_RelativeHumidity_IsbL-0300_RLatLon0.03_PT005H.grib2 2026-05-06 06:05 1.5M
20260506T00Z_MSC_CAPS_RelativeHumidity_IsbL-0350_RLatLon0.03_PT005H.grib2 2026-05-06 06:05 1.7M
20260506T00Z_MSC_CAPS_RelativeHumidity_IsbL-0400_RLatLon0.03_PT005H.grib2 2026-05-06 06:05 1.8M
20260506T00Z_MSC_CAPS_RelativeHumidity_IsbL-0450_RLatLon0.03_PT005H.grib2 2026-05-06 06:05 1.9M
20260506T00Z_MSC_CAPS_RelativeHumidity_IsbL-0500_RLatLon0.03_PT005H.grib2 2026-05-06 06:05 1.8M
20260506T00Z_MSC_CAPS_RelativeHumidity_IsbL-0550_RLatLon0.03_PT005H.grib2 2026-05-06 06:05 2.0M
20260506T00Z_MSC_CAPS_RelativeHumidity_IsbL-0600_RLatLon0.03_PT005H.grib2 2026-05-06 06:05 2.0M
20260506T00Z_MSC_CAPS_RelativeHumidity_IsbL-0650_RLatLon0.03_PT005H.grib2 2026-05-06 06:05 2.2M
20260506T00Z_MSC_CAPS_RelativeHumidity_IsbL-0700_RLatLon0.03_PT005H.grib2 2026-05-06 06:05 2.2M
20260506T00Z_MSC_CAPS_RelativeHumidity_IsbL-0750_RLatLon0.03_PT005H.grib2 2026-05-06 06:05 2.3M
20260506T00Z_MSC_CAPS_RelativeHumidity_IsbL-0800_RLatLon0.03_PT005H.grib2 2026-05-06 06:05 2.5M
20260506T00Z_MSC_CAPS_RelativeHumidity_IsbL-0850_RLatLon0.03_PT005H.grib2 2026-05-06 06:05 2.5M
20260506T00Z_MSC_CAPS_RelativeHumidity_IsbL-0875_RLatLon0.03_PT005H.grib2 2026-05-06 06:05 2.5M
20260506T00Z_MSC_CAPS_RelativeHumidity_IsbL-0900_RLatLon0.03_PT005H.grib2 2026-05-06 06:05 2.6M
20260506T00Z_MSC_CAPS_RelativeHumidity_IsbL-0925_RLatLon0.03_PT005H.grib2 2026-05-06 06:05 2.6M
20260506T00Z_MSC_CAPS_RelativeHumidity_IsbL-0950_RLatLon0.03_PT005H.grib2 2026-05-06 06:05 2.7M
20260506T00Z_MSC_CAPS_RelativeHumidity_IsbL-0970_RLatLon0.03_PT005H.grib2 2026-05-06 06:05 2.8M
20260506T00Z_MSC_CAPS_RelativeHumidity_IsbL-0985_RLatLon0.03_PT005H.grib2 2026-05-06 06:05 2.9M
20260506T00Z_MSC_CAPS_RelativeHumidity_IsbL-1000_RLatLon0.03_PT005H.grib2 2026-05-06 06:05 2.9M
20260506T00Z_MSC_CAPS_RelativeHumidity_IsbL-1015_RLatLon0.03_PT005H.grib2 2026-05-06 06:05 2.9M
20260506T00Z_MSC_CAPS_Runoff-Accum_Sfc_RLatLon0.03_PT005H.grib2 2026-05-06 06:05 275K
20260506T00Z_MSC_CAPS_SeaIceAreaFraction_Sfc_RLatLon0.03_PT005H.nc 2026-05-06 06:11 15M
20260506T00Z_MSC_CAPS_SeaIceCompressiveStrength_Sfc_RLatLon0.03_PT005H.nc 2026-05-06 06:11 15M
20260506T00Z_MSC_CAPS_SeaIceDivergence_Sfc_RLatLon0.03_PT005H.nc 2026-05-06 06:11 15M
20260506T00Z_MSC_CAPS_SeaIceInternalPressure_Sfc_RLatLon0.03_PT005H.nc 2026-05-06 06:11 15M
20260506T00Z_MSC_CAPS_SeaIceShear_Sfc_RLatLon0.03_PT005H.nc 2026-05-06 06:11 15M
20260506T00Z_MSC_CAPS_SeaIceSnowTemp_Sfc_RLatLon0.03_PT005H.nc 2026-05-06 06:11 14M
20260506T00Z_MSC_CAPS_SeaIceSnowVolume_Sfc_RLatLon0.03_PT005H.nc 2026-05-06 06:11 15M
20260506T00Z_MSC_CAPS_SeaIceVelocityX_Sfc_RLatLon0.03_PT005H.nc 2026-05-06 06:11 15M
20260506T00Z_MSC_CAPS_SeaIceVelocityY_Sfc_RLatLon0.03_PT005H.nc 2026-05-06 06:11 15M
20260506T00Z_MSC_CAPS_SeaIceVolume_Sfc_RLatLon0.03_PT005H.nc 2026-05-06 06:11 15M
20260506T00Z_MSC_CAPS_SeaSurfaceHeight_Sfc_RLatLon0.03_PT005H.nc 2026-05-06 06:11 16M
20260506T00Z_MSC_CAPS_SeaWaterSalinity_DBS-0.5m_RLatLon0.03_PT005H.nc 2026-05-06 06:11 16M
20260506T00Z_MSC_CAPS_SeaWaterSalinity_DBS-all_RLatLon0.03_PT005H.nc 2026-05-06 06:11 107M
20260506T00Z_MSC_CAPS_SeaWaterTemp_DBS-0.5m_RLatLon0.03_PT005H.nc 2026-05-06 06:11 15M
20260506T00Z_MSC_CAPS_SeaWaterTemp_DBS-all_RLatLon0.03_PT005H.nc 2026-05-06 06:11 88M
20260506T00Z_MSC_CAPS_SeaWaterVelocityX_DBS-0.5m_RLatLon0.03_PT005H.nc 2026-05-06 06:11 17M
20260506T00Z_MSC_CAPS_SeaWaterVelocityX_DBS-all_RLatLon0.03_PT005H.nc 2026-05-06 06:11 211M
20260506T00Z_MSC_CAPS_SeaWaterVelocityY_DBS-0.5m_RLatLon0.03_PT005H.nc 2026-05-06 06:11 17M
20260506T00Z_MSC_CAPS_SeaWaterVelocityY_DBS-all_RLatLon0.03_PT005H.nc 2026-05-06 06:11 217M
20260506T00Z_MSC_CAPS_SensibleHeatNetFlux_Sfc_RLatLon0.03_PT005H.grib2 2026-05-06 06:05 1.8M
20260506T00Z_MSC_CAPS_ShowalterIndex_IsbL-0500_RLatLon0.03_PT005H.grib2 2026-05-06 06:05 3.8M
20260506T00Z_MSC_CAPS_Snow-Accum_Sfc_RLatLon0.03_PT005H.grib2 2026-05-06 06:05 2.2M
20260506T00Z_MSC_CAPS_SnowDensity_Sfc_RLatLon0.03_PT005H.grib2 2026-05-06 06:05 1.2M
20260506T00Z_MSC_CAPS_SnowDepthWaterEquivalent_Sfc_RLatLon0.03_PT005H.grib2 2026-05-06 06:05 646K
20260506T00Z_MSC_CAPS_SnowDepth_Sfc_RLatLon0.03_PT005H.grib2 2026-05-06 06:05 1.1M
20260506T00Z_MSC_CAPS_SoilTemp_DBS-0to10cm_RLatLon0.03_PT005H.grib2 2026-05-06 06:05 1.3M
20260506T00Z_MSC_CAPS_SoilTemp_Sfc_RLatLon0.03_PT005H.grib2 2026-05-06 06:05 1.8M
20260506T00Z_MSC_CAPS_SoilVolumetricIceContent_Sfc_RLatLon0.03_PT005H.grib2 2026-05-06 06:05 1.3M
20260506T00Z_MSC_CAPS_SoilVolumetricWaterContent_DBS-0to10cm_RLatLon0.03_PT005H.grib2 2026-05-06 06:05 1.3M
20260506T00Z_MSC_CAPS_SoilVolumetricWaterContent_DBS-0to1cm_RLatLon0.03_PT005H.grib2 2026-05-06 06:05 1.7M
20260506T00Z_MSC_CAPS_SpecificHumidity_AGL-120m_RLatLon0.03_PT005H.grib2 2026-05-06 06:05 1.7M
20260506T00Z_MSC_CAPS_SpecificHumidity_AGL-2m_RLatLon0.03_PT005H.grib2 2026-05-06 06:05 1.7M
20260506T00Z_MSC_CAPS_SpecificHumidity_AGL-40m_RLatLon0.03_PT005H.grib2 2026-05-06 06:05 1.8M
20260506T00Z_MSC_CAPS_SpecificHumidity_AGL-80m_RLatLon0.03_PT005H.grib2 2026-05-06 06:05 1.8M
20260506T00Z_MSC_CAPS_SpecificHumidity_IsbL-0050_RLatLon0.03_PT005H.grib2 2026-05-06 06:05 871K
20260506T00Z_MSC_CAPS_SpecificHumidity_IsbL-0100_RLatLon0.03_PT005H.grib2 2026-05-06 06:05 1.1M
20260506T00Z_MSC_CAPS_SpecificHumidity_IsbL-0150_RLatLon0.03_PT005H.grib2 2026-05-06 06:05 1.0M
20260506T00Z_MSC_CAPS_SpecificHumidity_IsbL-0175_RLatLon0.03_PT005H.grib2 2026-05-06 06:05 1.0M
20260506T00Z_MSC_CAPS_SpecificHumidity_IsbL-0200_RLatLon0.03_PT005H.grib2 2026-05-06 06:05 843K
20260506T00Z_MSC_CAPS_SpecificHumidity_IsbL-0225_RLatLon0.03_PT005H.grib2 2026-05-06 06:05 1.0M
20260506T00Z_MSC_CAPS_SpecificHumidity_IsbL-0250_RLatLon0.03_PT005H.grib2 2026-05-06 06:05 1.0M
20260506T00Z_MSC_CAPS_SpecificHumidity_IsbL-0275_RLatLon0.03_PT005H.grib2 2026-05-06 06:05 1.1M
20260506T00Z_MSC_CAPS_SpecificHumidity_IsbL-0300_RLatLon0.03_PT005H.grib2 2026-05-06 06:05 957K
20260506T00Z_MSC_CAPS_SpecificHumidity_IsbL-0350_RLatLon0.03_PT005H.grib2 2026-05-06 06:05 1.1M
20260506T00Z_MSC_CAPS_SpecificHumidity_IsbL-0400_RLatLon0.03_PT005H.grib2 2026-05-06 06:05 1.1M
20260506T00Z_MSC_CAPS_SpecificHumidity_IsbL-0450_RLatLon0.03_PT005H.grib2 2026-05-06 06:05 1.1M
20260506T00Z_MSC_CAPS_SpecificHumidity_IsbL-0500_RLatLon0.03_PT005H.grib2 2026-05-06 06:05 1.2M
20260506T00Z_MSC_CAPS_SpecificHumidity_IsbL-0550_RLatLon0.03_PT005H.grib2 2026-05-06 06:05 1.2M
20260506T00Z_MSC_CAPS_SpecificHumidity_IsbL-0600_RLatLon0.03_PT005H.grib2 2026-05-06 06:05 1.3M
20260506T00Z_MSC_CAPS_SpecificHumidity_IsbL-0650_RLatLon0.03_PT005H.grib2 2026-05-06 06:05 1.4M
20260506T00Z_MSC_CAPS_SpecificHumidity_IsbL-0700_RLatLon0.03_PT005H.grib2 2026-05-06 06:05 1.2M
20260506T00Z_MSC_CAPS_SpecificHumidity_IsbL-0750_RLatLon0.03_PT005H.grib2 2026-05-06 06:05 1.3M
20260506T00Z_MSC_CAPS_SpecificHumidity_IsbL-0800_RLatLon0.03_PT005H.grib2 2026-05-06 06:05 1.5M
20260506T00Z_MSC_CAPS_SpecificHumidity_IsbL-0850_RLatLon0.03_PT005H.grib2 2026-05-06 06:05 1.7M
20260506T00Z_MSC_CAPS_SpecificHumidity_IsbL-0875_RLatLon0.03_PT005H.grib2 2026-05-06 06:05 1.7M
20260506T00Z_MSC_CAPS_SpecificHumidity_IsbL-0900_RLatLon0.03_PT005H.grib2 2026-05-06 06:05 1.8M
20260506T00Z_MSC_CAPS_SpecificHumidity_IsbL-0925_RLatLon0.03_PT005H.grib2 2026-05-06 06:05 1.9M
20260506T00Z_MSC_CAPS_SpecificHumidity_IsbL-0950_RLatLon0.03_PT005H.grib2 2026-05-06 06:05 1.9M
20260506T00Z_MSC_CAPS_SpecificHumidity_IsbL-0970_RLatLon0.03_PT005H.grib2 2026-05-06 06:05 2.0M
20260506T00Z_MSC_CAPS_SpecificHumidity_IsbL-0985_RLatLon0.03_PT005H.grib2 2026-05-06 06:05 2.0M
20260506T00Z_MSC_CAPS_SpecificHumidity_IsbL-1000_RLatLon0.03_PT005H.grib2 2026-05-06 06:05 1.7M
20260506T00Z_MSC_CAPS_SpecificHumidity_IsbL-1015_RLatLon0.03_PT005H.grib2 2026-05-06 06:05 1.7M
20260506T00Z_MSC_CAPS_SpecificHumidity_Sfc_RLatLon0.03_PT005H.grib2 2026-05-06 06:05 2.0M
20260506T00Z_MSC_CAPS_StormRelativeHelicity_Sfc_RLatLon0.03_PT005H.grib2 2026-05-06 06:05 3.3M
20260506T00Z_MSC_CAPS_Thickness_IsbL-1000to0500_RLatLon0.03_PT005H.grib2 2026-05-06 06:05 474K
20260506T00Z_MSC_CAPS_TotalCloudCover_Sfc_RLatLon0.03_PT005H.grib2 2026-05-06 06:05 3.3M
20260506T00Z_MSC_CAPS_TurboclineDepth_Sfc_RLatLon0.03_PT005H.nc 2026-05-06 06:11 16M
20260506T00Z_MSC_CAPS_UpwardLongwaveRadiationFlux_NTAtm_RLatLon0.03_PT005H.grib2 2026-05-06 06:05 2.8M
20260506T00Z_MSC_CAPS_UpwardShortwaveRadiationFlux_NTAtm_RLatLon0.03_PT005H.grib2 2026-05-06 06:05 1.7M
20260506T00Z_MSC_CAPS_VerticalVelocity_IsbL-0250_RLatLon0.03_PT005H.grib2 2026-05-06 06:05 1.2M
20260506T00Z_MSC_CAPS_VerticalVelocity_IsbL-0500_RLatLon0.03_PT005H.grib2 2026-05-06 06:05 1.1M
20260506T00Z_MSC_CAPS_VerticalVelocity_IsbL-0700_RLatLon0.03_PT005H.grib2 2026-05-06 06:05 1.2M
20260506T00Z_MSC_CAPS_VerticalVelocity_IsbL-0850_RLatLon0.03_PT005H.grib2 2026-05-06 06:05 1.1M
20260506T00Z_MSC_CAPS_VerticalVelocity_IsbL-1000_RLatLon0.03_PT005H.grib2 2026-05-06 06:05 1.4M
20260506T00Z_MSC_CAPS_WindDir_AGL-10m_RLatLon0.03_PT005H.grib2 2026-05-06 06:05 2.3M
20260506T00Z_MSC_CAPS_WindDir_AGL-120m_RLatLon0.03_PT005H.grib2 2026-05-06 06:05 1.2M
20260506T00Z_MSC_CAPS_WindDir_AGL-40m_RLatLon0.03_PT005H.grib2 2026-05-06 06:05 1.3M
20260506T00Z_MSC_CAPS_WindDir_AGL-80m_RLatLon0.03_PT005H.grib2 2026-05-06 06:05 1.2M
20260506T00Z_MSC_CAPS_WindDir_IsbL-0050_RLatLon0.03_PT005H.grib2 2026-05-06 06:05 1.1M
20260506T00Z_MSC_CAPS_WindDir_IsbL-0100_RLatLon0.03_PT005H.grib2 2026-05-06 06:05 1.1M
20260506T00Z_MSC_CAPS_WindDir_IsbL-0150_RLatLon0.03_PT005H.grib2 2026-05-06 06:05 1.0M
20260506T00Z_MSC_CAPS_WindDir_IsbL-0175_RLatLon0.03_PT005H.grib2 2026-05-06 06:05 1.0M
20260506T00Z_MSC_CAPS_WindDir_IsbL-0200_RLatLon0.03_PT005H.grib2 2026-05-06 06:05 1.1M
20260506T00Z_MSC_CAPS_WindDir_IsbL-0225_RLatLon0.03_PT005H.grib2 2026-05-06 06:05 1.1M
20260506T00Z_MSC_CAPS_WindDir_IsbL-0250_RLatLon0.03_PT005H.grib2 2026-05-06 06:05 1.1M
20260506T00Z_MSC_CAPS_WindDir_IsbL-0275_RLatLon0.03_PT005H.grib2 2026-05-06 06:05 1.1M
20260506T00Z_MSC_CAPS_WindDir_IsbL-0300_RLatLon0.03_PT005H.grib2 2026-05-06 06:05 1.1M
20260506T00Z_MSC_CAPS_WindDir_IsbL-0350_RLatLon0.03_PT005H.grib2 2026-05-06 06:05 1.1M
20260506T00Z_MSC_CAPS_WindDir_IsbL-0400_RLatLon0.03_PT005H.grib2 2026-05-06 06:05 1.2M
20260506T00Z_MSC_CAPS_WindDir_IsbL-0450_RLatLon0.03_PT005H.grib2 2026-05-06 06:05 1.2M
20260506T00Z_MSC_CAPS_WindDir_IsbL-0500_RLatLon0.03_PT005H.grib2 2026-05-06 06:05 1.3M
20260506T00Z_MSC_CAPS_WindDir_IsbL-0550_RLatLon0.03_PT005H.grib2 2026-05-06 06:05 1.3M
20260506T00Z_MSC_CAPS_WindDir_IsbL-0600_RLatLon0.03_PT005H.grib2 2026-05-06 06:05 1.3M
20260506T00Z_MSC_CAPS_WindDir_IsbL-0650_RLatLon0.03_PT005H.grib2 2026-05-06 06:05 1.4M
20260506T00Z_MSC_CAPS_WindDir_IsbL-0700_RLatLon0.03_PT005H.grib2 2026-05-06 06:05 1.5M
20260506T00Z_MSC_CAPS_WindDir_IsbL-0750_RLatLon0.03_PT005H.grib2 2026-05-06 06:05 1.6M
20260506T00Z_MSC_CAPS_WindDir_IsbL-0800_RLatLon0.03_PT005H.grib2 2026-05-06 06:05 1.7M
20260506T00Z_MSC_CAPS_WindDir_IsbL-0850_RLatLon0.03_PT005H.grib2 2026-05-06 06:05 1.8M
20260506T00Z_MSC_CAPS_WindDir_IsbL-0875_RLatLon0.03_PT005H.grib2 2026-05-06 06:05 1.8M
20260506T00Z_MSC_CAPS_WindDir_IsbL-0900_RLatLon0.03_PT005H.grib2 2026-05-06 06:05 1.8M
20260506T00Z_MSC_CAPS_WindDir_IsbL-0925_RLatLon0.03_PT005H.grib2 2026-05-06 06:05 2.0M
20260506T00Z_MSC_CAPS_WindDir_IsbL-0950_RLatLon0.03_PT005H.grib2 2026-05-06 06:05 2.0M
20260506T00Z_MSC_CAPS_WindDir_IsbL-0970_RLatLon0.03_PT005H.grib2 2026-05-06 06:05 2.1M
20260506T00Z_MSC_CAPS_WindDir_IsbL-0985_RLatLon0.03_PT005H.grib2 2026-05-06 06:05 2.1M
20260506T00Z_MSC_CAPS_WindDir_IsbL-1000_RLatLon0.03_PT005H.grib2 2026-05-06 06:05 2.2M
20260506T00Z_MSC_CAPS_WindDir_IsbL-1015_RLatLon0.03_PT005H.grib2 2026-05-06 06:05 2.3M
20260506T00Z_MSC_CAPS_WindGust-Max_AGL-10m_RLatLon0.03_PT005H.grib2 2026-05-06 06:05 2.5M
20260506T00Z_MSC_CAPS_WindGust-Min_AGL-10m_RLatLon0.03_PT005H.grib2 2026-05-06 06:05 2.4M
20260506T00Z_MSC_CAPS_WindGust_AGL-10m_RLatLon0.03_PT005H.grib2 2026-05-06 06:05 2.5M
20260506T00Z_MSC_CAPS_WindSpeed_AGL-10m_RLatLon0.03_PT005H.grib2 2026-05-06 06:05 2.1M
20260506T00Z_MSC_CAPS_WindSpeed_AGL-120m_RLatLon0.03_PT005H.grib2 2026-05-06 06:05 1.1M
20260506T00Z_MSC_CAPS_WindSpeed_AGL-40m_RLatLon0.03_PT005H.grib2 2026-05-06 06:05 1.2M
20260506T00Z_MSC_CAPS_WindSpeed_AGL-80m_RLatLon0.03_PT005H.grib2 2026-05-06 06:05 1.2M
20260506T00Z_MSC_CAPS_WindSpeed_IsbL-0050_RLatLon0.03_PT005H.grib2 2026-05-06 06:05 1.0M
20260506T00Z_MSC_CAPS_WindSpeed_IsbL-0100_RLatLon0.03_PT005H.grib2 2026-05-06 06:05 1.3M
20260506T00Z_MSC_CAPS_WindSpeed_IsbL-0150_RLatLon0.03_PT005H.grib2 2026-05-06 06:05 1.0M
20260506T00Z_MSC_CAPS_WindSpeed_IsbL-0175_RLatLon0.03_PT005H.grib2 2026-05-06 06:05 1.1M
20260506T00Z_MSC_CAPS_WindSpeed_IsbL-0200_RLatLon0.03_PT005H.grib2 2026-05-06 06:05 1.1M
20260506T00Z_MSC_CAPS_WindSpeed_IsbL-0225_RLatLon0.03_PT005H.grib2 2026-05-06 06:05 965K
20260506T00Z_MSC_CAPS_WindSpeed_IsbL-0250_RLatLon0.03_PT005H.grib2 2026-05-06 06:05 1.0M
20260506T00Z_MSC_CAPS_WindSpeed_IsbL-0275_RLatLon0.03_PT005H.grib2 2026-05-06 06:05 1.0M
20260506T00Z_MSC_CAPS_WindSpeed_IsbL-0300_RLatLon0.03_PT005H.grib2 2026-05-06 06:05 1.0M
20260506T00Z_MSC_CAPS_WindSpeed_IsbL-0350_RLatLon0.03_PT005H.grib2 2026-05-06 06:05 1.1M
20260506T00Z_MSC_CAPS_WindSpeed_IsbL-0400_RLatLon0.03_PT005H.grib2 2026-05-06 06:05 1.0M
20260506T00Z_MSC_CAPS_WindSpeed_IsbL-0450_RLatLon0.03_PT005H.grib2 2026-05-06 06:05 1.0M
20260506T00Z_MSC_CAPS_WindSpeed_IsbL-0500_RLatLon0.03_PT005H.grib2 2026-05-06 06:05 1.0M
20260506T00Z_MSC_CAPS_WindSpeed_IsbL-0550_RLatLon0.03_PT005H.grib2 2026-05-06 06:05 1.1M
20260506T00Z_MSC_CAPS_WindSpeed_IsbL-0600_RLatLon0.03_PT005H.grib2 2026-05-06 06:05 1.4M
20260506T00Z_MSC_CAPS_WindSpeed_IsbL-0650_RLatLon0.03_PT005H.grib2 2026-05-06 06:05 1.3M
20260506T00Z_MSC_CAPS_WindSpeed_IsbL-0700_RLatLon0.03_PT005H.grib2 2026-05-06 06:05 1.5M
20260506T00Z_MSC_CAPS_WindSpeed_IsbL-0750_RLatLon0.03_PT005H.grib2 2026-05-06 06:05 1.6M
20260506T00Z_MSC_CAPS_WindSpeed_IsbL-0800_RLatLon0.03_PT005H.grib2 2026-05-06 06:05 1.6M
20260506T00Z_MSC_CAPS_WindSpeed_IsbL-0850_RLatLon0.03_PT005H.grib2 2026-05-06 06:05 1.8M
20260506T00Z_MSC_CAPS_WindSpeed_IsbL-0875_RLatLon0.03_PT005H.grib2 2026-05-06 06:05 1.8M
20260506T00Z_MSC_CAPS_WindSpeed_IsbL-0900_RLatLon0.03_PT005H.grib2 2026-05-06 06:05 1.9M
20260506T00Z_MSC_CAPS_WindSpeed_IsbL-0925_RLatLon0.03_PT005H.grib2 2026-05-06 06:05 2.0M
20260506T00Z_MSC_CAPS_WindSpeed_IsbL-0950_RLatLon0.03_PT005H.grib2 2026-05-06 06:05 2.0M
20260506T00Z_MSC_CAPS_WindSpeed_IsbL-0970_RLatLon0.03_PT005H.grib2 2026-05-06 06:05 2.1M
20260506T00Z_MSC_CAPS_WindSpeed_IsbL-0985_RLatLon0.03_PT005H.grib2 2026-05-06 06:05 2.1M
20260506T00Z_MSC_CAPS_WindSpeed_IsbL-1000_RLatLon0.03_PT005H.grib2 2026-05-06 06:05 2.1M
20260506T00Z_MSC_CAPS_WindSpeed_IsbL-1015_RLatLon0.03_PT005H.grib2 2026-05-06 06:05 2.1M
20260506T00Z_MSC_CAPS_WindU_AGL-10m_RLatLon0.03_PT005H.grib2 2026-05-06 06:05 1.9M
20260506T00Z_MSC_CAPS_WindU_AGL-120m_RLatLon0.03_PT005H.grib2 2026-05-06 06:05 907K
20260506T00Z_MSC_CAPS_WindU_AGL-40m_RLatLon0.03_PT005H.grib2 2026-05-06 06:05 1.2M
20260506T00Z_MSC_CAPS_WindU_AGL-80m_RLatLon0.03_PT005H.grib2 2026-05-06 06:05 1.2M
20260506T00Z_MSC_CAPS_WindU_IsbL-0050_RLatLon0.03_PT005H.grib2 2026-05-06 06:05 728K
20260506T00Z_MSC_CAPS_WindU_IsbL-0100_RLatLon0.03_PT005H.grib2 2026-05-06 06:05 968K
20260506T00Z_MSC_CAPS_WindU_IsbL-0150_RLatLon0.03_PT005H.grib2 2026-05-06 06:05 929K
20260506T00Z_MSC_CAPS_WindU_IsbL-0175_RLatLon0.03_PT005H.grib2 2026-05-06 06:05 737K
20260506T00Z_MSC_CAPS_WindU_IsbL-0200_RLatLon0.03_PT005H.grib2 2026-05-06 06:05 762K
20260506T00Z_MSC_CAPS_WindU_IsbL-0225_RLatLon0.03_PT005H.grib2 2026-05-06 06:05 908K
20260506T00Z_MSC_CAPS_WindU_IsbL-0250_RLatLon0.03_PT005H.grib2 2026-05-06 06:05 925K
20260506T00Z_MSC_CAPS_WindU_IsbL-0275_RLatLon0.03_PT005H.grib2 2026-05-06 06:05 927K
20260506T00Z_MSC_CAPS_WindU_IsbL-0300_RLatLon0.03_PT005H.grib2 2026-05-06 06:05 726K
20260506T00Z_MSC_CAPS_WindU_IsbL-0350_RLatLon0.03_PT005H.grib2 2026-05-06 06:05 956K
20260506T00Z_MSC_CAPS_WindU_IsbL-0400_RLatLon0.03_PT005H.grib2 2026-05-06 06:05 966K
20260506T00Z_MSC_CAPS_WindU_IsbL-0450_RLatLon0.03_PT005H.grib2 2026-05-06 06:05 1.0M
20260506T00Z_MSC_CAPS_WindU_IsbL-0500_RLatLon0.03_PT005H.grib2 2026-05-06 06:05 1.0M
20260506T00Z_MSC_CAPS_WindU_IsbL-0550_RLatLon0.03_PT005H.grib2 2026-05-06 06:05 1.0M
20260506T00Z_MSC_CAPS_WindU_IsbL-0600_RLatLon0.03_PT005H.grib2 2026-05-06 06:05 943K
20260506T00Z_MSC_CAPS_WindU_IsbL-0650_RLatLon0.03_PT005H.grib2 2026-05-06 06:05 1.0M
20260506T00Z_MSC_CAPS_WindU_IsbL-0700_RLatLon0.03_PT005H.grib2 2026-05-06 06:05 1.0M
20260506T00Z_MSC_CAPS_WindU_IsbL-0750_RLatLon0.03_PT005H.grib2 2026-05-06 06:05 1.1M
20260506T00Z_MSC_CAPS_WindU_IsbL-0800_RLatLon0.03_PT005H.grib2 2026-05-06 06:05 1.1M
20260506T00Z_MSC_CAPS_WindU_IsbL-0850_RLatLon0.03_PT005H.grib2 2026-05-06 06:05 1.2M
20260506T00Z_MSC_CAPS_WindU_IsbL-0875_RLatLon0.03_PT005H.grib2 2026-05-06 06:05 1.3M
20260506T00Z_MSC_CAPS_WindU_IsbL-0900_RLatLon0.03_PT005H.grib2 2026-05-06 06:05 1.3M
20260506T00Z_MSC_CAPS_WindU_IsbL-0925_RLatLon0.03_PT005H.grib2 2026-05-06 06:05 1.3M
20260506T00Z_MSC_CAPS_WindU_IsbL-0950_RLatLon0.03_PT005H.grib2 2026-05-06 06:05 1.4M
20260506T00Z_MSC_CAPS_WindU_IsbL-0970_RLatLon0.03_PT005H.grib2 2026-05-06 06:05 1.4M
20260506T00Z_MSC_CAPS_WindU_IsbL-0985_RLatLon0.03_PT005H.grib2 2026-05-06 06:05 1.5M
20260506T00Z_MSC_CAPS_WindU_IsbL-1000_RLatLon0.03_PT005H.grib2 2026-05-06 06:05 1.9M
20260506T00Z_MSC_CAPS_WindU_IsbL-1015_RLatLon0.03_PT005H.grib2 2026-05-06 06:05 1.9M
20260506T00Z_MSC_CAPS_WindV_AGL-10m_RLatLon0.03_PT005H.grib2 2026-05-06 06:05 1.9M
20260506T00Z_MSC_CAPS_WindV_AGL-120m_RLatLon0.03_PT005H.grib2 2026-05-06 06:05 911K
20260506T00Z_MSC_CAPS_WindV_AGL-40m_RLatLon0.03_PT005H.grib2 2026-05-06 06:05 1.2M
20260506T00Z_MSC_CAPS_WindV_AGL-80m_RLatLon0.03_PT005H.grib2 2026-05-06 06:05 918K
20260506T00Z_MSC_CAPS_WindV_IsbL-0050_RLatLon0.03_PT005H.grib2 2026-05-06 06:05 781K
20260506T00Z_MSC_CAPS_WindV_IsbL-0100_RLatLon0.03_PT005H.grib2 2026-05-06 06:05 795K
20260506T00Z_MSC_CAPS_WindV_IsbL-0150_RLatLon0.03_PT005H.grib2 2026-05-06 06:05 920K
20260506T00Z_MSC_CAPS_WindV_IsbL-0175_RLatLon0.03_PT005H.grib2 2026-05-06 06:05 728K
20260506T00Z_MSC_CAPS_WindV_IsbL-0200_RLatLon0.03_PT005H.grib2 2026-05-06 06:05 877K
20260506T00Z_MSC_CAPS_WindV_IsbL-0225_RLatLon0.03_PT005H.grib2 2026-05-06 06:05 896K
20260506T00Z_MSC_CAPS_WindV_IsbL-0250_RLatLon0.03_PT005H.grib2 2026-05-06 06:05 705K
20260506T00Z_MSC_CAPS_WindV_IsbL-0275_RLatLon0.03_PT005H.grib2 2026-05-06 06:05 713K
20260506T00Z_MSC_CAPS_WindV_IsbL-0300_RLatLon0.03_PT005H.grib2 2026-05-06 06:05 721K
20260506T00Z_MSC_CAPS_WindV_IsbL-0350_RLatLon0.03_PT005H.grib2 2026-05-06 06:05 736K
20260506T00Z_MSC_CAPS_WindV_IsbL-0400_RLatLon0.03_PT005H.grib2 2026-05-06 06:05 739K
20260506T00Z_MSC_CAPS_WindV_IsbL-0450_RLatLon0.03_PT005H.grib2 2026-05-06 06:05 1.0M
20260506T00Z_MSC_CAPS_WindV_IsbL-0500_RLatLon0.03_PT005H.grib2 2026-05-06 06:05 1.0M
20260506T00Z_MSC_CAPS_WindV_IsbL-0550_RLatLon0.03_PT005H.grib2 2026-05-06 06:05 1.0M
20260506T00Z_MSC_CAPS_WindV_IsbL-0600_RLatLon0.03_PT005H.grib2 2026-05-06 06:05 1.0M
20260506T00Z_MSC_CAPS_WindV_IsbL-0650_RLatLon0.03_PT005H.grib2 2026-05-06 06:05 1.0M
20260506T00Z_MSC_CAPS_WindV_IsbL-0700_RLatLon0.03_PT005H.grib2 2026-05-06 06:05 1.0M
20260506T00Z_MSC_CAPS_WindV_IsbL-0750_RLatLon0.03_PT005H.grib2 2026-05-06 06:05 1.1M
20260506T00Z_MSC_CAPS_WindV_IsbL-0800_RLatLon0.03_PT005H.grib2 2026-05-06 06:05 1.1M
20260506T00Z_MSC_CAPS_WindV_IsbL-0850_RLatLon0.03_PT005H.grib2 2026-05-06 06:05 1.2M
20260506T00Z_MSC_CAPS_WindV_IsbL-0875_RLatLon0.03_PT005H.grib2 2026-05-06 06:05 1.3M
20260506T00Z_MSC_CAPS_WindV_IsbL-0900_RLatLon0.03_PT005H.grib2 2026-05-06 06:05 1.3M
20260506T00Z_MSC_CAPS_WindV_IsbL-0925_RLatLon0.03_PT005H.grib2 2026-05-06 06:05 1.4M
20260506T00Z_MSC_CAPS_WindV_IsbL-0950_RLatLon0.03_PT005H.grib2 2026-05-06 06:05 1.4M
20260506T00Z_MSC_CAPS_WindV_IsbL-0970_RLatLon0.03_PT005H.grib2 2026-05-06 06:05 1.5M
20260506T00Z_MSC_CAPS_WindV_IsbL-0985_RLatLon0.03_PT005H.grib2 2026-05-06 06:05 1.5M
20260506T00Z_MSC_CAPS_WindV_IsbL-1000_RLatLon0.03_PT005H.grib2 2026-05-06 06:05 1.5M
20260506T00Z_MSC_CAPS_WindV_IsbL-1015_RLatLon0.03_PT005H.grib2 2026-05-06 06:05 1.9M